| time (UTC) | temp F | wind direction | speed MPH | gust MPH | rain 1hr in | rain 24hr in | rain mn in | humidity % | barometer mb |
| 20260902182510 | 66 | 29 | 13.0 | 16.0 | 0.00 | 0.01 | 0.01 | 88 | 1027.1 |
| 20260902182006 | 67 | 29 | 13.0 | 16.0 | 0.00 | 0.01 | 0.01 | 90 | 1027.1 |
| 20260902181501 | 67 | 29 | 13.0 | 16.0 | 0.00 | 0.01 | 0.01 | 88 | 1027.4 |
| 20260902180956 | 67 | 29 | 13.0 | 16.0 | 0.00 | 0.01 | 0.01 | 89 | 1027.4 |
| 20260902180451 | 67 | 29 | 13.0 | 16.0 | 0.00 | 0.01 | 0.01 | 88 | 1027.4 |
| 20260902175947 | 67 | 29 | 13.0 | 16.0 | 0.00 | 0.01 | 0.01 | 87 | 1027.5 |
| 20260902175447 | 67 | 29 | 13.0 | 16.0 | 0.00 | 0.01 | 0.01 | 87 | 1027.7 |
| 20260902174942 | 67 | 29 | 13.0 | 16.0 | 0.00 | 0.01 | 0.01 | 86 | 1027.8 |
| 20260902174439 | 67 | 29 | 13.0 | 16.0 | 0.00 | 0.01 | 0.01 | 85 | 1027.8 |
| 20260902173934 | 67 | 29 | 13.0 | 16.0 | 0.00 | 0.01 | 0.01 | 89 | 1027.8 |
| 20260902173433 | 67 | 29 | 13.0 | 16.0 | 0.00 | 0.01 | 0.01 | 89 | 1027.7 |
| 20260902172929 | 67 | 29 | 13.0 | 16.0 | 0.00 | 0.01 | 0.01 | 88 | 1027.7 |
| 20260902172428 | 67 | 29 | 13.0 | 16.0 | 0.00 | 0.01 | 0.01 | 89 | 1027.8 |
| 20260902171924 | 67 | 29 | 13.0 | 16.0 | 0.00 | 0.01 | 0.01 | 86 | 1027.7 |
| 20260902171419 | 67 | 29 | 13.0 | 16.0 | 0.00 | 0.01 | 0.01 | 84 | 1027.8 |
| 20260902170915 | 67 | 29 | 13.0 | 16.0 | 0.00 | 0.01 | 0.01 | 85 | 1028.0 |
| 20260902170410 | 67 | 29 | 13.0 | 16.0 | 0.00 | 0.01 | 0.01 | 86 | 1027.9 |
| 20260902165906 | 67 | 29 | 13.0 | 16.0 | 0.00 | 0.01 | 0.01 | 90 | 1028.1 |
| 20260902165405 | 67 | 29 | 13.0 | 16.0 | 0.00 | 0.01 | 0.01 | 90 | 1027.9 |
| 20260902164859 | 67 | 29 | 13.0 | 16.0 | 0.00 | 0.01 | 0.01 | 89 | 1027.8 |
| 20260902164354 | 67 | 29 | 13.0 | 16.0 | 0.00 | 0.01 | 0.01 | 89 | 1027.8 |
| 20260902163854 | 67 | 29 | 13.0 | 16.0 | 0.00 | 0.01 | 0.01 | 87 | 1027.6 |
| 20260902163349 | 67 | 29 | 13.0 | 16.0 | 0.00 | 0.01 | 0.01 | 86 | 1027.6 |
| 20260902162847 | 67 | 29 | 13.0 | 16.0 | 0.00 | 0.01 | 0.01 | 86 | 1027.7 |
| 20260902162343 | 67 | 29 | 13.0 | 16.0 | 0.00 | 0.01 | 0.01 | 88 | 1028.0 |
| 20260902161843 | 67 | 29 | 13.0 | 16.0 | 0.00 | 0.01 | 0.01 | 87 | 1027.8 |
| 20260902161338 | 67 | 29 | 13.0 | 16.0 | 0.00 | 0.01 | 0.01 | 88 | 1027.8 |
| 20260902160834 | 67 | 29 | 13.0 | 16.0 | 0.00 | 0.01 | 0.01 | 85 | 1027.9 |
| 20260902160329 | 67 | 29 | 13.0 | 16.0 | 0.00 | 0.01 | 0.01 | 87 | 1028.1 |
| 20260902155827 | 67 | 29 | 13.0 | 16.0 | 0.00 | 0.01 | 0.01 | 86 | 1028.0 |
| 20260902155326 | 67 | 29 | 13.0 | 16.0 | 0.00 | 0.01 | 0.01 | 86 | 1028.0 |
| 20260902154821 | 67 | 29 | 13.0 | 16.0 | 0.00 | 0.01 | 0.01 | 85 | 1027.9 |
| 20260902154317 | 67 | 29 | 13.0 | 16.0 | 0.00 | 0.01 | 0.01 | 86 | 1028.0 |
| 20260902153816 | 68 | 29 | 13.0 | 16.0 | 0.00 | 0.01 | 0.01 | 86 | 1028.0 |
| 20260902153315 | 68 | 29 | 13.0 | 16.0 | 0.00 | 0.01 | 0.01 | 85 | 1027.8 |
| 20260902152811 | 67 | 29 | 13.0 | 16.0 | 0.00 | 0.01 | 0.01 | 84 | 1027.9 |
| 20260902152308 | 68 | 29 | 13.0 | 16.0 | 0.00 | 0.01 | 0.01 | 88 | 1027.6 |
| 20260902151808 | 67 | 29 | 13.0 | 16.0 | 0.00 | 0.01 | 0.01 | 86 | 1027.7 |
| 20260902151303 | 67 | 29 | 13.0 | 16.0 | 0.00 | 0.01 | 0.01 | 88 | 1027.7 |
| 20260902150757 | 68 | 29 | 13.0 | 16.0 | 0.00 | 0.01 | 0.01 | 89 | 1027.7 |
| 20260902150254 | 66 | 29 | 13.0 | 16.0 | 0.00 | 0.01 | 0.01 | 90 | 1027.8 |
| 20260902145753 | 66 | 29 | 13.0 | 16.0 | 0.00 | 0.01 | 0.01 | 88 | 1027.8 |
| 20260902145249 | 66 | 29 | 13.0 | 16.0 | 0.00 | 0.01 | 0.01 | 90 | 1028.0 |
| 20260902144744 | 65 | 29 | 13.0 | 16.0 | 0.00 | 0.01 | 0.01 | 89 | 1027.7 |
| 20260902144240 | 65 | 29 | 13.0 | 16.0 | 0.00 | 0.01 | 0.01 | 90 | 1028.0 |
| 20260902143740 | 66 | 29 | 13.0 | 16.0 | 0.00 | 0.01 | 0.01 | 90 | 1028.1 |
| 20260902143235 | 65 | 29 | 13.0 | 16.0 | 0.00 | 0.01 | 0.01 | 91 | 1028.1 |
| 20260902142731 | 66 | 29 | 13.0 | 16.0 | 0.00 | 0.01 | 0.01 | 91 | 1028.1 |
| 20260902142227 | 65 | 29 | 13.0 | 16.0 | 0.00 | 0.01 | 0.01 | 90 | 1028.0 |
| 20260902141721 | 65 | 29 | 13.0 | 16.0 | 0.00 | 0.01 | 0.01 | 93 | 1028.1 |
| 20260902141217 | 64 | 29 | 13.0 | 16.0 | 0.00 | 0.01 | 0.01 | 92 | 1028.4 |
| 20260902140712 | 64 | 29 | 13.0 | 16.0 | 0.00 | 0.01 | 0.01 | 93 | 1028.5 |
| 20260902140212 | 64 | 29 | 13.0 | 16.0 | 0.00 | 0.01 | 0.01 | 95 | 1028.7 |
| 20260902135711 | 63 | 29 | 13.0 | 16.0 | 0.00 | 0.01 | 0.01 | 97 | 1028.5 |
| 20260902135208 | 63 | 29 | 13.0 | 16.0 | 0.00 | 0.01 | 0.01 | 97 | 1028.3 |
| 20260902134707 | 63 | 29 | 13.0 | 16.0 | 0.00 | 0.01 | 0.01 | 97 | 1028.2 |
| 20260902134202 | 63 | 29 | 13.0 | 16.0 | 0.00 | 0.01 | 0.01 | 98 | 1027.9 |
| 20260902133657 | 63 | 29 | 13.0 | 16.0 | 0.00 | 0.01 | 0.01 | 98 | 1028.0 |
| 20260902133156 | 62 | 29 | 13.0 | 16.0 | 0.00 | 0.01 | 0.01 | 98 | 1027.8 |
| 20260902132652 | 62 | 29 | 13.0 | 16.0 | 0.00 | 0.01 | 0.01 | 98 | 1027.9 |
| 20260902132147 | 63 | 29 | 13.0 | 16.0 | 0.00 | 0.01 | 0.01 | 99 | 1027.9 |
| 20260902131643 | 62 | 29 | 13.0 | 16.0 | 0.00 | 0.01 | 0.01 | 99 | 1027.6 |
| 20260902131138 | 62 | 29 | 13.0 | 16.0 | 0.00 | 0.01 | 0.01 | 99 | 1027.7 |
| 20260902130634 | 62 | 29 | 13.0 | 16.0 | 0.00 | 0.01 | 0.01 | 99 | 1027.8 |
| 20260902130129 | 62 | 29 | 13.0 | 16.0 | 0.00 | 0.01 | 0.01 | 99 | 1027.9 |
| 20260902125625 | 62 | 29 | 13.0 | 16.0 | 0.00 | 0.01 | 0.01 | 99 | 1028.0 |
| 20260902125120 | 62 | 29 | 13.0 | 16.0 | 0.00 | 0.01 | 0.01 | 99 | 1027.7 |
| 20260902124617 | 62 | 29 | 13.0 | 16.0 | 0.00 | 0.01 | 0.01 | 99 | 1027.7 |
| 20260902124117 | 62 | 29 | 13.0 | 16.0 | 0.00 | 0.01 | 0.01 | 99 | 1027.7 |
| 20260902123613 | 61 | 29 | 13.0 | 16.0 | 0.00 | 0.01 | 0.01 | 99 | 1027.4 |
| 20260902123108 | 61 | 29 | 13.0 | 16.0 | 0.00 | 0.01 | 0.01 | 99 | 1027.7 |
| 20260902122607 | 61 | 29 | 13.0 | 16.0 | 0.00 | 0.01 | 0.01 | 99 | 1027.7 |
| 20260902122103 | 61 | 29 | 13.0 | 16.0 | 0.00 | 0.01 | 0.01 | 99 | 1027.7 |
| 20260902121602 | 61 | 29 | 13.0 | 16.0 | 0.00 | 0.01 | 0.01 | 99 | 1027.8 |
| 20260902121057 | 61 | 29 | 13.0 | 16.0 | 0.00 | 0.01 | 0.01 | 99 | 1027.6 |
| 20260902120553 | 61 | 29 | 13.0 | 16.0 | 0.00 | 0.01 | 0.01 | 99 | 1027.5 |
| 20260902120049 | 61 | 29 | 13.0 | 16.0 | 0.00 | 0.01 | 0.01 | 99 | 1027.6 |
| 20260902115544 | 61 | 29 | 13.0 | 16.0 | 0.00 | 0.01 | 0.01 | 99 | 1027.5 |
| 20260902115041 | 61 | 29 | 13.0 | 16.0 | 0.00 | 0.01 | 0.01 | 99 | 1027.6 |
| 20260902114536 | 61 | 29 | 13.0 | 16.0 | 0.00 | 0.01 | 0.01 | 99 | 1027.8 |
| 20260902114036 | 61 | 29 | 13.0 | 16.0 | 0.00 | 0.01 | 0.01 | 99 | 1027.7 |
| 20260902113532 | 61 | 29 | 13.0 | 16.0 | 0.00 | 0.01 | 0.01 | 99 | 1027.7 |
| 20260902113027 | 61 | 29 | 13.0 | 16.0 | 0.00 | 0.01 | 0.01 | 99 | 1027.8 |
| 20260902112522 | 61 | 29 | 13.0 | 16.0 | 0.00 | 0.01 | 0.01 | 99 | 1027.8 |
| 20260902112019 | 60 | 29 | 13.0 | 16.0 | 0.00 | 0.01 | 0.01 | 99 | 1027.8 |
| 20260902111515 | 60 | 29 | 13.0 | 16.0 | 0.00 | 0.01 | 0.01 | 99 | 1027.7 |
| 20260902111010 | 60 | 29 | 13.0 | 16.0 | 0.00 | 0.01 | 0.01 | 99 | 1027.6 |
| 20260902110506 | 60 | 29 | 13.0 | 16.0 | 0.00 | 0.01 | 0.01 | 99 | 1027.5 |
| 20260902110001 | 60 | 29 | 13.0 | 16.0 | 0.00 | 0.01 | 0.01 | 99 | 1027.6 |
| 20260902105457 | 60 | 29 | 13.0 | 16.0 | 0.00 | 0.01 | 0.01 | 99 | 1027.6 |
| 20260902104956 | 60 | 29 | 13.0 | 16.0 | 0.00 | 0.01 | 0.01 | 99 | 1027.4 |
| 20260902104452 | 60 | 29 | 13.0 | 16.0 | 0.00 | 0.01 | 0.01 | 99 | 1027.4 |
| 20260902103952 | 60 | 29 | 13.0 | 16.0 | 0.00 | 0.01 | 0.01 | 99 | 1027.7 |
| 20260902103447 | 60 | 29 | 13.0 | 16.0 | 0.00 | 0.01 | 0.01 | 99 | 1027.6 |
| 20260902102942 | 60 | 29 | 13.0 | 16.0 | 0.00 | 0.01 | 0.01 | 99 | 1027.4 |
| 20260902102440 | 60 | 29 | 13.0 | 16.0 | 0.00 | 0.01 | 0.01 | 99 | 1027.6 |
| 20260902101936 | 60 | 29 | 13.0 | 16.0 | 0.00 | 0.01 | 0.01 | 99 | 1027.4 |
| 20260902101436 | 60 | 29 | 13.0 | 16.0 | 0.00 | 0.01 | 0.01 | 99 | 1027.2 |
| 20260902100935 | 60 | 29 | 13.0 | 16.0 | 0.00 | 0.01 | 0.01 | 99 | 1027.2 |
| 20260902100429 | 60 | 29 | 13.0 | 16.0 | 0.00 | 0.01 | 0.01 | 99 | 1027.1 |
| 20260902095924 | 60 | 29 | 13.0 | 16.0 | 0.00 | 0.01 | 0.01 | 99 | 1027.3 |
| 20260902095419 | 60 | 29 | 13.0 | 16.0 | 0.00 | 0.01 | 0.01 | 99 | 1027.2 |
| 20260902094918 | 60 | 29 | 13.0 | 16.0 | 0.00 | 0.01 | 0.01 | 99 | 1027.1 |
| 20260902094414 | 60 | 29 | 13.0 | 16.0 | 0.00 | 0.01 | 0.01 | 99 | 1026.9 |
| 20260902093914 | 60 | 29 | 13.0 | 16.0 | 0.00 | 0.01 | 0.01 | 99 | 1026.8 |
| 20260902093409 | 60 | 29 | 13.0 | 16.0 | 0.00 | 0.01 | 0.01 | 99 | 1026.8 |
| 20260902092908 | 60 | 29 | 13.0 | 16.0 | 0.00 | 0.01 | 0.01 | 99 | 1027.1 |
| 20260902092404 | 60 | 29 | 13.0 | 16.0 | 0.00 | 0.01 | 0.01 | 99 | 1027.0 |
| 20260902091859 | 60 | 29 | 13.0 | 16.0 | 0.00 | 0.01 | 0.01 | 99 | 1026.9 |
| 20260902091354 | 60 | 29 | 13.0 | 16.0 | 0.00 | 0.01 | 0.01 | 99 | 1026.9 |
| 20260902090851 | 60 | 29 | 13.0 | 16.0 | 0.00 | 0.01 | 0.01 | 99 | 1026.9 |
| 20260902090350 | 60 | 29 | 13.0 | 16.0 | 0.00 | 0.01 | 0.01 | 99 | 1026.7 |
| 20260902085849 | 60 | 29 | 13.0 | 16.0 | 0.00 | 0.01 | 0.01 | 99 | 1026.6 |
| 20260902085344 | 60 | 29 | 13.0 | 16.0 | 0.00 | 0.01 | 0.01 | 99 | 1026.6 |
| 20260902084840 | 60 | 29 | 13.0 | 16.0 | 0.00 | 0.01 | 0.01 | 99 | 1026.8 |
| 20260902084336 | 60 | 29 | 13.0 | 16.0 | 0.00 | 0.01 | 0.01 | 99 | 1026.6 |
| 20260902083831 | 61 | 29 | 13.0 | 16.0 | 0.00 | 0.01 | 0.01 | 99 | 1026.7 |
| 20260902083332 | 60 | 29 | 13.0 | 16.0 | 0.00 | 0.01 | 0.01 | 99 | 1026.6 |
| 20260902082827 | 61 | 29 | 13.0 | 16.0 | 0.00 | 0.01 | 0.01 | 99 | 1026.4 |
| 20260902082323 | 61 | 29 | 13.0 | 16.0 | 0.00 | 0.01 | 0.01 | 99 | 1026.4 |
| 20260902081819 | 61 | 29 | 13.0 | 16.0 | 0.02 | 0.01 | 0.01 | 99 | 1026.0 |
| 20260902081314 | 61 | 29 | 13.0 | 16.0 | 0.02 | 0.01 | 0.01 | 99 | 1025.9 |
| 20260902080809 | 61 | 29 | 13.0 | 16.0 | 0.00 | 0.00 | 0.00 | 99 | 1026.2 |
| 20260902080307 | 61 | 29 | 13.0 | 16.0 | 0.00 | 0.00 | 0.00 | 99 | 1026.4 |
| 20260902075805 | 61 | 29 | 13.0 | 16.0 | 0.00 | 0.00 | 0.00 | 99 | 1026.4 |
| 20260902075302 | 61 | 29 | 13.0 | 16.0 | 0.00 | 0.00 | 0.00 | 99 | 1026.2 |
| 20260902074801 | 61 | 29 | 13.0 | 16.0 | 0.00 | 0.00 | 0.00 | 99 | 1026.3 |
| 20260902074257 | 61 | 29 | 13.0 | 16.0 | 0.00 | 0.00 | 0.00 | 99 | 1026.4 |
| 20260902073752 | 61 | 29 | 13.0 | 16.0 | 0.00 | 0.00 | 0.00 | 99 | 1026.3 |
| 20260902073248 | 61 | 29 | 13.0 | 16.0 | 0.00 | 0.00 | 0.00 | 99 | 1026.0 |
| 20260902072743 | 61 | 29 | 13.0 | 16.0 | 0.00 | 0.00 | 0.00 | 99 | 1025.8 |
| 20260902072239 | 61 | 29 | 13.0 | 16.0 | 0.00 | 0.00 | 0.00 | 99 | 1025.8 |
| 20260902071736 | 61 | 29 | 13.0 | 16.0 | 0.00 | 0.00 | 0.00 | 99 | 1025.8 |
| 20260902071230 | 61 | 29 | 13.0 | 16.0 | 0.00 | 0.00 | 0.00 | 99 | 1025.8 |
| 20260902070727 | 61 | 29 | 13.0 | 16.0 | 0.00 | 0.00 | 0.00 | 99 | 1025.7 |
| 20260902070226 | 61 | 29 | 13.0 | 16.0 | 0.00 | 0.00 | 0.00 | 99 | 1025.8 |
| 20260902065725 | 61 | 29 | 13.0 | 16.0 | 0.00 | 0.00 | 0.00 | 99 | 1025.9 |
| 20260902065221 | 61 | 29 | 13.0 | 16.0 | 0.00 | 0.00 | 0.00 | 99 | 1026.2 |
| 20260902064716 | 61 | 29 | 13.0 | 16.0 | 0.00 | 0.00 | 0.00 | 99 | 1025.9 |
| 20260902064213 | 61 | 29 | 13.0 | 16.0 | 0.00 | 0.00 | 0.00 | 99 | 1026.0 |
| 20260902063708 | 61 | 29 | 13.0 | 16.0 | 0.00 | 0.00 | 0.00 | 99 | 1026.0 |
| 20260902063207 | 61 | 29 | 13.0 | 16.0 | 0.00 | 0.00 | 0.00 | 99 | 1026.0 |
| 20260902062707 | 61 | 29 | 13.0 | 16.0 | 0.00 | 0.00 | 0.00 | 99 | 1026.0 |
| 20260902062202 | 61 | 29 | 13.0 | 16.0 | 0.00 | 0.00 | 0.00 | 99 | 1026.0 |
| 20260902061701 | 61 | 29 | 13.0 | 16.0 | 0.00 | 0.00 | 0.00 | 99 | 1026.0 |
| 20260902061157 | 61 | 29 | 13.0 | 16.0 | 0.00 | 0.00 | 0.00 | 99 | 1026.2 |
| 20260902060653 | 61 | 29 | 13.0 | 16.0 | 0.00 | 0.00 | 0.00 | 99 | 1026.0 |
| 20260902060149 | 61 | 29 | 13.0 | 16.0 | 0.00 | 0.00 | 0.00 | 99 | 1026.3 |
| 20260902055645 | 61 | 29 | 13.0 | 16.0 | 0.00 | 0.00 | 0.00 | 99 | 1025.9 |
| 20260902055140 | 61 | 29 | 13.0 | 16.0 | 0.00 | 0.00 | 0.00 | 99 | 1026.0 |
| 20260902054636 | 61 | 29 | 13.0 | 16.0 | 0.00 | 0.00 | 0.00 | 99 | 1026.2 |
| 20260902054131 | 61 | 29 | 13.0 | 16.0 | 0.00 | 0.00 | 0.00 | 99 | 1026.0 |
| 20260902053626 | 61 | 29 | 13.0 | 16.0 | 0.00 | 0.00 | 0.00 | 99 | 1026.2 |
| 20260902053120 | 61 | 29 | 13.0 | 16.0 | 0.00 | 0.00 | 0.00 | 99 | 1026.3 |
| 20260902052615 | 61 | 29 | 13.0 | 16.0 | 0.00 | 0.00 | 0.00 | 99 | 1026.2 |
| 20260902052110 | 61 | 29 | 13.0 | 16.0 | 0.00 | 0.00 | 0.00 | 99 | 1026.2 |
| 20260902051609 | 61 | 29 | 13.0 | 16.0 | 0.00 | 0.00 | 0.00 | 99 | 1026.2 |
| 20260902051109 | 61 | 29 | 13.0 | 16.0 | 0.00 | 0.00 | 0.00 | 99 | 1026.3 |
| 20260902050603 | 61 | 29 | 13.0 | 16.0 | 0.00 | 0.00 | 0.00 | 99 | 1026.2 |
| 20260902050059 | 61 | 29 | 13.0 | 16.0 | 0.00 | 0.00 | 0.00 | 99 | 1026.0 |
| 20260902045554 | 61 | 29 | 13.0 | 16.0 | 0.00 | 0.00 | 0.00 | 99 | 1025.9 |
| 20260902045051 | 61 | 29 | 13.0 | 16.0 | 0.02 | 0.00 | 0.00 | 99 | 1026.0 |
| 20260902044550 | 61 | 29 | 13.0 | 16.0 | 0.02 | 0.00 | 0.00 | 99 | 1025.9 |
| 20260902044046 | 61 | 29 | 13.0 | 16.0 | 0.00 | 0.00 | 0.00 | 99 | 1025.8 |
| 20260902043541 | 61 | 29 | 13.0 | 16.0 | 0.00 | 0.00 | 0.00 | 99 | 1025.9 |
| 20260902043036 | 61 | 29 | 13.0 | 16.0 | 0.00 | 0.00 | 0.00 | 99 | 1025.9 |
| 20260902042536 | 61 | 29 | 13.0 | 16.0 | 0.00 | 0.00 | 0.00 | 99 | 1025.8 |
| 20260902042031 | 61 | 29 | 13.0 | 16.0 | 0.00 | 0.00 | 0.00 | 99 | 1025.9 |
| 20260902041525 | 61 | 29 | 13.0 | 16.0 | 0.00 | 0.00 | 0.00 | 99 | 1025.6 |
| 20260902041020 | 61 | 29 | 13.0 | 16.0 | 0.00 | 0.00 | 0.00 | 99 | 1025.8 |
| 20260902040520 | 61 | 29 | 13.0 | 16.0 | 0.00 | 0.00 | 0.00 | 99 | 1025.7 |
| 20260902040015 | 61 | 29 | 13.0 | 16.0 | 0.00 | 0.92 | 0.92 | 99 | 1025.6 |
| 20260902035514 | 61 | 29 | 13.0 | 16.0 | 0.00 | 0.92 | 0.92 | 99 | 1025.7 |
| 20260902035009 | 61 | 29 | 13.0 | 16.0 | 0.00 | 0.92 | 0.92 | 99 | 1025.6 |
| 20260902034503 | 61 | 29 | 13.0 | 16.0 | 0.00 | 0.92 | 0.92 | 99 | 1025.5 |
| 20260902034002 | 61 | 29 | 13.0 | 16.0 | 0.00 | 0.92 | 0.92 | 99 | 1025.2 |
| 20260902033501 | 61 | 29 | 13.0 | 16.0 | 0.00 | 0.92 | 0.92 | 99 | 1025.2 |
| 20260902033000 | 61 | 29 | 13.0 | 16.0 | 0.00 | 0.92 | 0.92 | 99 | 1025.3 |
| 20260902032455 | 61 | 29 | 13.0 | 16.0 | 0.00 | 0.92 | 0.92 | 99 | 1025.3 |
| 20260902031950 | 61 | 29 | 13.0 | 16.0 | 0.00 | 0.92 | 0.92 | 99 | 1025.3 |
| 20260902031445 | 61 | 29 | 13.0 | 16.0 | 0.00 | 0.92 | 0.92 | 99 | 1025.2 |
| 20260902030942 | 61 | 29 | 13.0 | 16.0 | 0.00 | 0.92 | 0.92 | 99 | 1025.4 |
| 20260902030441 | 61 | 29 | 13.0 | 16.0 | 0.00 | 0.92 | 0.92 | 99 | 1025.5 |
| 20260902025940 | 61 | 29 | 13.0 | 16.0 | 0.00 | 0.92 | 0.92 | 99 | 1025.5 |
| 20260902025437 | 61 | 29 | 13.0 | 16.0 | 0.02 | 0.92 | 0.92 | 99 | 1025.1 |
| 20260902024937 | 61 | 29 | 13.0 | 16.0 | 0.02 | 0.92 | 0.92 | 99 | 1025.2 |
| 20260902024432 | 61 | 29 | 13.0 | 16.0 | 0.00 | 0.92 | 0.92 | 99 | 1025.0 |
| 20260902023927 | 61 | 29 | 13.0 | 16.0 | 0.00 | 0.92 | 0.92 | 99 | 1024.9 |
| 20260902023423 | 62 | 29 | 13.0 | 16.0 | 0.00 | 0.92 | 0.92 | 99 | 1024.8 |
| 20260902022922 | 61 | 29 | 13.0 | 16.0 | 0.00 | 0.92 | 0.92 | 99 | 1024.5 |
| 20260902022417 | 61 | 29 | 13.0 | 16.0 | 0.00 | 0.92 | 0.92 | 99 | 1024.7 |
| 20260902021913 | 61 | 29 | 13.0 | 16.0 | 0.00 | 0.92 | 0.92 | 99 | 1024.9 |
| 20260902021413 | 62 | 29 | 13.0 | 16.0 | 0.00 | 0.92 | 0.92 | 99 | 1024.9 |
| 20260902020909 | 61 | 29 | 13.0 | 16.0 | 0.00 | 0.92 | 0.92 | 99 | 1025.1 |
| 20260902020405 | 62 | 29 | 13.0 | 16.0 | 0.00 | 0.92 | 0.92 | 99 | 1024.9 |
| 20260902015900 | 62 | 29 | 13.0 | 16.0 | 0.00 | 0.92 | 0.92 | 99 | 1024.8 |
| 20260902015355 | 62 | 29 | 13.0 | 16.0 | 0.00 | 0.92 | 0.92 | 99 | 1024.7 |
| 20260902014851 | 62 | 29 | 13.0 | 16.0 | 0.00 | 0.92 | 0.92 | 99 | 1024.6 |
| 20260902014348 | 62 | 29 | 13.0 | 16.0 | 0.00 | 0.92 | 0.92 | 99 | 1024.5 |
| 20260902013846 | 62 | 29 | 13.0 | 16.0 | 0.00 | 0.92 | 0.92 | 99 | 1024.6 |
| 20260902013342 | 62 | 29 | 13.0 | 16.0 | 0.00 | 0.92 | 0.92 | 99 | 1024.5 |
| 20260902012837 | 62 | 29 | 13.0 | 16.0 | 0.00 | 0.92 | 0.92 | 99 | 1024.5 |
| 20260902012333 | 62 | 29 | 13.0 | 16.0 | 0.00 | 0.92 | 0.92 | 99 | 1024.5 |
| 20260902011829 | 62 | 29 | 13.0 | 16.0 | 0.00 | 0.92 | 0.92 | 99 | 1024.3 |
| 20260902011323 | 62 | 29 | 13.0 | 16.0 | 0.00 | 0.92 | 0.92 | 99 | 1024.1 |
| 20260902010822 | 62 | 29 | 13.0 | 16.0 | 0.00 | 0.92 | 0.92 | 99 | 1024.3 |
| 20260902010312 | 62 | 29 | 13.0 | 16.0 | 0.02 | 0.92 | 0.92 | 99 | 1024.2 |
| 20260902005811 | 63 | 29 | 13.0 | 16.0 | 0.00 | 0.91 | 0.91 | 99 | 1024.4 |
| 20260902005306 | 63 | 29 | 13.0 | 16.0 | 0.00 | 0.91 | 0.91 | 99 | 1024.2 |
| 20260902004801 | 62 | 29 | 13.0 | 16.0 | 0.00 | 0.91 | 0.91 | 99 | 1024.0 |
| 20260902004256 | 63 | 29 | 13.0 | 16.0 | 0.00 | 0.91 | 0.91 | 99 | 1024.0 |
| 20260902003750 | 62 | 29 | 13.0 | 16.0 | 0.00 | 0.91 | 0.91 | 98 | 1023.9 |
| 20260902003246 | 63 | 29 | 13.0 | 16.0 | 0.00 | 0.91 | 0.91 | 98 | 1024.0 |
| 20260902002742 | 63 | 29 | 13.0 | 16.0 | 0.00 | 0.91 | 0.91 | 98 | 1023.9 |
| 20260902002236 | 63 | 29 | 13.0 | 16.0 | 0.00 | 0.91 | 0.91 | 98 | 1023.9 |
| 20260902001732 | 63 | 29 | 13.0 | 16.0 | 0.00 | 0.91 | 0.91 | 98 | 1024.0 |
| 20260902001231 | 63 | 29 | 13.0 | 16.0 | 0.00 | 0.91 | 0.91 | 99 | 1023.8 |
| 20260902000726 | 63 | 29 | 13.0 | 16.0 | 0.00 | 0.91 | 0.91 | 98 | 1023.5 |
| 20260902000221 | 63 | 29 | 13.0 | 16.0 | 0.00 | 0.91 | 0.91 | 98 | 1023.7 |
| 20260901235720 | 63 | 29 | 13.0 | 16.0 | 0.00 | 0.91 | 0.91 | 99 | 1023.7 |
| 20260901235216 | 64 | 29 | 13.0 | 16.0 | 0.00 | 0.91 | 0.91 | 99 | 1023.6 |
| 20260901234715 | 64 | 29 | 13.0 | 16.0 | 0.00 | 0.91 | 0.91 | 99 | 1023.9 |
| 20260901234210 | 64 | 29 | 13.0 | 16.0 | 0.00 | 0.91 | 0.91 | 99 | 1023.8 |
| 20260901233710 | 64 | 29 | 13.0 | 16.0 | 0.00 | 0.91 | 0.91 | 99 | 1023.7 |
| 20260901233206 | 64 | 29 | 13.0 | 16.0 | 0.00 | 0.91 | 0.91 | 99 | 1023.4 |
| 20260901232701 | 65 | 29 | 13.0 | 16.0 | 0.00 | 0.91 | 0.91 | 99 | 1023.5 |
| 20260901232156 | 65 | 29 | 13.0 | 16.0 | 0.00 | 0.91 | 0.91 | 99 | 1023.2 |
| 20260901231653 | 65 | 29 | 13.0 | 16.0 | 0.00 | 0.91 | 0.91 | 99 | 1023.4 |
| 20260901231149 | 65 | 29 | 13.0 | 16.0 | 0.00 | 0.91 | 0.91 | 99 | 1023.1 |
| 20260901230644 | 65 | 29 | 13.0 | 16.0 | 0.00 | 0.91 | 0.91 | 99 | 1023.5 |
| 20260901230144 | 66 | 29 | 13.0 | 16.0 | 0.00 | 0.91 | 0.91 | 99 | 1023.4 |
| 20260901225639 | 66 | 29 | 13.0 | 16.0 | 0.00 | 0.91 | 0.91 | 99 | 1023.2 |
| 20260901225133 | 67 | 29 | 13.0 | 16.0 | 0.00 | 0.91 | 0.91 | 99 | 1022.9 |
| 20260901224629 | 67 | 29 | 13.0 | 16.0 | 0.00 | 0.91 | 0.91 | 99 | 1022.9 |
| 20260901224125 | 68 | 29 | 13.0 | 16.0 | 0.00 | 0.91 | 0.91 | 99 | 1022.6 |
| 20260901223620 | 68 | 29 | 13.0 | 16.0 | 0.00 | 0.91 | 0.91 | 99 | 1022.6 |
| 20260901223115 | 69 | 29 | 13.0 | 16.0 | 0.00 | 0.91 | 0.91 | 98 | 1022.4 |
| 20260901222607 | 70 | 29 | 13.0 | 16.0 | 0.00 | 0.91 | 0.91 | 98 | 1022.3 |
| 20260901222102 | 70 | 29 | 13.0 | 16.0 | 0.00 | 0.91 | 0.91 | 98 | 1022.3 |
| 20260901221558 | 70 | 29 | 13.0 | 16.0 | 0.00 | 0.91 | 0.91 | 98 | 1022.1 |
| 20260901221054 | 71 | 29 | 13.0 | 16.0 | 0.00 | 0.91 | 0.91 | 97 | 1022.3 |
| 20260901220553 | 71 | 29 | 13.0 | 16.0 | 0.00 | 0.91 | 0.91 | 97 | 1022.2 |
| 20260901220052 | 72 | 29 | 13.0 | 16.0 | 0.00 | 0.91 | 0.91 | 97 | 1022.1 |
| 20260901215550 | 72 | 29 | 13.0 | 16.0 | 0.00 | 0.91 | 0.91 | 96 | 1022.1 |
| 20260901215044 | 73 | 29 | 13.0 | 16.0 | 0.00 | 0.91 | 0.91 | 96 | 1022.0 |
| 20260901214543 | 73 | 29 | 13.0 | 16.0 | 0.00 | 0.91 | 0.91 | 95 | 1021.8 |
| 20260901214037 | 73 | 29 | 13.0 | 16.0 | 0.00 | 0.91 | 0.91 | 95 | 1021.8 |
| 20260901213531 | 73 | 29 | 13.0 | 16.0 | 0.00 | 0.91 | 0.91 | 96 | 1021.9 |
| 20260901213031 | 74 | 29 | 13.0 | 16.0 | 0.00 | 0.91 | 0.91 | 96 | 1021.9 |
| 20260901212526 | 74 | 29 | 13.0 | 16.0 | 0.00 | 0.91 | 0.91 | 95 | 1021.9 |
| 20260901212023 | 74 | 29 | 13.0 | 16.0 | 0.00 | 0.91 | 0.91 | 95 | 1021.8 |
| 20260901211517 | 74 | 29 | 13.0 | 16.0 | 0.00 | 0.91 | 0.91 | 95 | 1021.8 |
| 20260901211014 | 74 | 29 | 13.0 | 16.0 | 0.00 | 0.91 | 0.91 | 95 | 1021.8 |
| 20260901210509 | 74 | 29 | 13.0 | 16.0 | 0.00 | 0.91 | 0.91 | 95 | 1021.9 |
| 20260901210005 | 74 | 29 | 13.0 | 16.0 | 0.00 | 0.91 | 0.91 | 95 | 1021.8 |
| 20260901205500 | 74 | 29 | 13.0 | 16.0 | 0.00 | 0.91 | 0.91 | 95 | 1021.9 |
| 20260901205000 | 74 | 29 | 13.0 | 16.0 | 0.00 | 0.91 | 0.91 | 95 | 1021.8 |
| 20260901204457 | 74 | 29 | 13.0 | 16.0 | 0.00 | 0.91 | 0.91 | 94 | 1021.8 |
| 20260901203956 | 74 | 29 | 13.0 | 16.0 | 0.00 | 0.91 | 0.91 | 93 | 1021.9 |
| 20260901203451 | 75 | 29 | 13.0 | 16.0 | 0.00 | 0.91 | 0.91 | 93 | 1021.8 |
| 20260901202947 | 75 | 29 | 13.0 | 16.0 | 0.00 | 0.91 | 0.91 | 92 | 1021.8 |
| 20260901202441 | 76 | 29 | 13.0 | 16.0 | 0.00 | 0.91 | 0.91 | 91 | 1021.7 |
| 20260901201937 | 75 | 29 | 13.0 | 16.0 | 0.00 | 0.91 | 0.91 | 92 | 1021.8 |
| 20260901201432 | 75 | 29 | 13.0 | 16.0 | 0.00 | 0.91 | 0.91 | 92 | 1021.7 |
| 20260901200932 | 75 | 29 | 13.0 | 16.0 | 0.00 | 0.91 | 0.91 | 92 | 1021.9 |
| 20260901200427 | 76 | 29 | 13.0 | 16.0 | 0.00 | 0.91 | 0.91 | 90 | 1021.8 |
| 20260901195926 | 76 | 29 | 13.0 | 16.0 | 0.00 | 0.91 | 0.91 | 90 | 1021.6 |
| 20260901195424 | 75 | 29 | 13.0 | 16.0 | 0.00 | 0.91 | 0.91 | 92 | 1021.8 |
| 20260901194920 | 75 | 29 | 13.0 | 16.0 | 0.00 | 0.91 | 0.91 | 94 | 1021.5 |
| 20260901194414 | 75 | 29 | 13.0 | 16.0 | 0.00 | 0.91 | 0.91 | 93 | 1021.6 |
| 20260901193910 | 75 | 29 | 13.0 | 16.0 | 0.00 | 0.91 | 0.91 | 93 | 1021.8 |
| 20260901193410 | 75 | 29 | 13.0 | 16.0 | 0.00 | 0.91 | 0.91 | 93 | 1021.8 |
| 20260901192909 | 75 | 29 | 13.0 | 16.0 | 0.00 | 0.91 | 0.91 | 92 | 1021.7 |
| 20260901192405 | 76 | 29 | 13.0 | 16.0 | 0.00 | 0.91 | 0.91 | 92 | 1021.7 |
| 20260901191901 | 76 | 29 | 13.0 | 16.0 | 0.00 | 0.91 | 0.91 | 91 | 1021.7 |
| 20260901191356 | 76 | 29 | 13.0 | 16.0 | 0.00 | 0.91 | 0.91 | 90 | 1021.6 |
| 20260901190853 | 76 | 29 | 13.0 | 16.0 | 0.00 | 0.91 | 0.91 | 93 | 1021.6 |
| 20260901190352 | 75 | 29 | 13.0 | 16.0 | 0.00 | 0.91 | 0.91 | 94 | 1021.8 |
| 20260901185851 | 74 | 29 | 13.0 | 16.0 | 0.00 | 0.91 | 0.91 | 96 | 1021.7 |
| 20260901185350 | 74 | 29 | 13.0 | 16.0 | 0.00 | 0.91 | 0.91 | 95 | 1021.9 |
| 20260901184846 | 74 | 29 | 13.0 | 16.0 | 0.00 | 0.91 | 0.91 | 93 | 1021.8 |
| 20260901184341 | 75 | 29 | 13.0 | 16.0 | 0.00 | 0.91 | 0.91 | 93 | 1021.7 |
| 20260901183836 | 75 | 29 | 13.0 | 16.0 | 0.00 | 0.91 | 0.91 | 92 | 1021.8 |
| 20260901183336 | 75 | 29 | 13.0 | 16.0 | 0.00 | 0.91 | 0.91 | 94 | 1021.8 |
| 20260901182832 | 74 | 29 | 13.0 | 16.0 | 0.00 | 0.91 | 0.91 | 95 | 1021.8 |